Wind_Speed
9 9 9 9 9 9 9 9 9 9 9 9 9 9 9 10 10 11 11 12 12 13 14 14 15 16 16 17 19 20 21 22 22 22 21 14 9 11 10 11 11 13 14 14 13 13 13 12 12 13 14 13 11 11 12 11 9 4 2 3 3 4 5 5 6 5 3 6 8 15 17 8 8 6 7 8 12 14 11 6 7 7 3 13 20 28 35 32
9 9 10 10 10 10 10 10 10 10 10 10 10 10 9 10 10 10 11 11 12 12 13 14 15 16 16 18 19 21 22 23 25 22 13 7 6 10 11 11 9 11 14 14 13 13 13 11 12 14 15 12 8 10 11 10 10 7 3 2 5 5 5 4 4 5 5 8 12 18 19 9 6 5 1 1 3 6 7 7 10 12 12 18 25 32 32 32
10 10 11 11 11 11 11 11 10 10 11 10 10 10 10 10 10 11 11 11 12 12 13 14 14 16 16 17 19 20 22 25 25 13 2 2 4 4 10 13 9 9 12 11 11 12 11 9 11 14 14 11 9 10 9 8 9 10 6 2 7 5 5 8 8 11 13 15 13 16 18 14 15 10 4 3 2 1 3 6 11 16 21 26 32 33 31 33
11 11 11 11 12 11 12 12 11 11 11 11 11 11 11 11 11 11 12 12 12 12 12 12 13 15 15 17 18 18 21 24 15 1 4 3 4 3 6 12 10 9 11 11 10 10 10 8 10 13 12 8 8 9 7 9 7 7 8 5 6 3 5 11 11 15 19 20 16 15 16 17 20 12 5 8 5 2 6 13 16 21 29 34 35 34 33 34
11 11 11 12 12 12 12 12 13 13 12 12 12 12 12 12 12 11 12 12 12 12 12 12 12 13 14 16 16 17 17 12 2 5 3 4 4 5 2 8 9 9 10 12 10 11 12 11 11 12 9 4 6 5 6 13 8 2 5 9 9 4 6 12 15 17 21 21 18 14 12 16 17 9 8 13 6 6 13 18 20 25 31 36 38 35 35 35
11 12 12 12 12 12 13 13 13 13 13 13 13 13 13 13 13 12 12 12 12 12 11 11 11 11 13 14 15 15 10 4 2 1 3 4 2 3 2 4 8 8 10 12 12 12 14 13 12 10 6 2 4 5 5 9 8 3 5 8 13 10 8 14 19 21 23 20 15 13 16 19 15 7 11 16 10 12 16 18 20 24 28 34 39 38 36 35
11 11 12 12 12 13 13 13 13 13 14 14 14 14 14 14 14 13 13 13 13 12 11 11 11 11 11 13 14 12 10 11 6 3 7 5 0 1 2 3 6 8 11 12 13 15 17 15 12 8 4 2 3 5 7 8 7 6 5 6 14 16 13 19 23 25 27 22 22 24 20 18 14 9 7 14 16 15 12 17 21 24 27 33 38 37 36 35
11 11 12 12 13 13 13 13 14 14 14 15 15 14 14 15 14 14 14 13 14 13 13 11 11 11 11 12 12 11 14 14 6 4 8 5 4 2 1 2 3 7 9 12 14 16 18 16 13 9 4 3 4 3 7 8 5 6 7 8 12 16 17 22 24 24 27 25 27 25 15 19 23 12 4 11 16 12 11 17 21 25 28 32 37 36 36 35
11 11 12 12 13 13 13 14 14 14 15 15 15 15 15 16 15 15 14 14 14 14 14 13 13 13 12 13 11 10 13 9 2 4 7 6 6 4 3 3 4 6 6 9 13 14 17 17 16 12 5 5 6 5 6 3 3 6 10 12 10 13 17 21 21 21 24 22 21 14 9 22 25 10 3 8 12 13 17 20 23 27 29 31 34 35 35 32
11 11 12 13 13 13 14 14 14 14 15 15 15 15 15 16 16 16 15 14 14 15 14 14 14 14 14 13 7 5 7 3 1 4 6 7 7 6 6 5 6 7 6 8 12 16 20 19 17 13 6 5 6 8 7 5 7 9 10 12 12 14 18 19 18 21 22 18 16 10 9 22 19 5 3 6 13 16 21 23 25 28 29 30 31 32 32 27
11 12 13 14 14 14 15 14 15 15 15 15 15 16 16 16 17 17 17 15 15 16 15 15 15 15 15 13 8 7 6 4 4 4 5 7 7 6 8 8 9 9 7 8 11 17 20 18 15 11 4 3 3 7 7 8 11 11 9 9 11 12 14 15 14 19 17 10 15 13 11 19 12 3 5 11 17 19 24 26 26 27 27 27 27 28 28 25
12 13 14 15 16 16 16 16 16 16 16 16 15 16 16 17 18 18 18 16 16 16 16 16 15 16 15 15 17 11 6 7 7 7 7 6 7 8 10 11 12 11 9 8 9 13 19 18 14 11 6 3 2 4 5 8 9 9 5 5 9 8 8 10 10 14 11 5 12 10 6 11 5 5 6 15 22 21 24 24 23 23 23 23 24 25 25 25
14 14 15 16 17 18 18 18 17 17 17 17 16 16 15 17 18 19 18 17 18 17 16 16 16 17 14 16 19 8 7 13 14 16 14 10 11 11 11 12 13 13 11 10 9 10 18 20 15 13 9 4 2 5 9 13 10 6 3 1 5 7 6 7 7 10 8 5 10 7 2 8 6 12 10 16 25 22 23 23 21 21 20 21 23 22 20 24
15 16 16 17 18 19 19 19 19 19 19 18 17 16 16 17 18 19 19 18 19 17 17 16 16 16 12 19 21 13 14 18 20 23 18 14 14 12 11 11 12 12 11 10 8 8 14 19 17 13 11 9 10 11 10 9 5 3 3 2 2 2 5 7 4 4 4 5 8 10 4 8 7 14 13 18 27 26 23 22 22 22 22 22 21 18 17 22
16 17 17 17 18 19 19 20 20 20 20 19 18 17 17 18 19 19 18 19 18 17 17 15 15 14 13 22 24 15 13 15 18 19 16 17 17 14 12 11 10 10 10 10 8 7 10 15 15 11 12 14 12 7 4 4 2 2 2 4 3 2 5 9 7 4 5 5 6 10 4 6 6 15 14 18 27 26 23 21 21 23 24 23 19 17 20 23
16 16 16 17 18 18 19 19 20 20 20 19 18 17 17 18 19 19 19 19 18 17 15 13 13 9 9 15 13 7 8 10 10 9 11 19 20 15 12 10 10 9 11 10 8 8 10 11 11 12 14 11 5 3 2 4 4 3 1 4 4 3 4 6 6 4 7 5 2 5 5 3 4 13 13 18 28 24 22 20 21 24 23 22 19 20 25 25
15 16 16 17 18 18 19 19 20 20 19 19 17 16 17 19 18 18 18 18 16 14 12 10 8 7 11 13 10 10 9 6 5 6 6 16 21 16 11 12 11 11 12 11 12 13 12 9 7 9 9 4 2 3 0 4 5 4 2 2 3 3 3 4 5 6 2 1 3 3 4 5 6 11 9 17 29 22 20 20 22 25 21 20 22 23 26 29
15 16 16 16 17 18 18 19 19 19 19 17 16 16 16 15 15 14 13 12 10 6 6 8 3 3 10 11 8 10 6 4 6 9 10 9 18 16 12 11 11 11 11 10 12 12 10 7 4 2 3 2 2 5 3 5 4 1 1 2 3 3 4 4 4 4 5 3 4 4 4 8 8 11 8 14 27 21 21 25 25 23 21 23 26 26 27 29
15 15 16 17 17 18 18 19 19 19 18 15 14 15 12 11 11 7 5 5 4 2 3 7 7 3 8 10 11 11 11 13 14 13 12 8 13 18 15 13 12 11 6 3 5 7 8 4 1 3 3 4 4 5 6 6 4 4 4 3 3 4 5 7 6 5 5 4 6 6 7 9 8 11 8 12 25 20 20 24 23 20 22 27 29 30 30 29
15 15 17 17 17 17 17 17 18 18 17 14 13 11 8 10 7 3 8 12 13 12 12 13 14 18 22 24 24 20 18 19 17 15 11 8 10 17 17 16 12 9 5 4 4 4 6 4 5 6 4 5 6 7 7 5 2 2 2 3 4 4 7 9 6 5 5 3 7 7 8 10 10 12 8 11 21 16 18 20 20 22 25 30 31 31 33 30
15 16 17 17 17 17 16 16 16 15 16 15 13 9 6 10 6 5 13 17 19 20 21 23 22 26 32 31 28 23 19 17 17 17 12 8 10 13 14 13 7 5 5 5 3 1 4 6 7 6 6 7 7 7 5 3 2 2 3 5 5 4 7 9 5 8 6 2 6 7 6 11 11 9 4 12 17 13 19 19 19 23 26 33 35 32 32 31
16 16 16 17 16 16 15 15 14 14 14 13 11 7 6 9 8 8 11 12 20 23 21 22 22 28 36 34 32 26 16 14 17 19 13 8 13 13 11 10 6 4 3 2 2 1 2 7 7 6 7 6 5 2 4 3 3 3 2 2 5 4 6 8 6 7 3 3 6 8 7 10 6 1 1 7 11 17 28 30 30 31 29 34 36 33 33 34
16 16 16 17 16 15 14 13 13 13 12 10 9 7 6 8 9 10 7 7 17 24 21 23 25 28 34 36 32 22 14 13 15 20 15 9 16 17 12 9 6 5 3 3 5 4 4 7 7 8 6 5 4 2 4 2 2 3 2 1 5 4 2 4 5 5 2 3 6 6 6 6 4 1 3 4 4 16 26 31 35 38 38 39 38 35 37 38
15 16 16 17 16 14 13 13 12 9 9 9 8 7 6 8 9 12 7 5 10 17 19 23 25 28 33 32 24 17 18 18 16 19 19 13 17 17 12 8 6 5 5 6 8 7 9 8 4 6 6 7 6 5 4 4 3 4 5 5 5 6 6 7 6 5 4 4 2 2 4 5 5 3 5 7 2 11 18 23 25 29 32 34 33 34 37 38
16 16 16 17 16 14 12 11 8 6 9 8 5 6 7 7 10 11 5 2 5 9 10 11 16 23 27 21 16 18 16 16 20 22 20 19 19 13 8 9 7 5 7 7 7 6 11 9 5 6 5 7 7 6 5 7 4 4 5 9 10 9 10 9 7 5 5 5 2 3 4 5 6 6 6 5 4 8 11 16 18 20 24 26 29 32 35 36
16 16 16 16 16 14 11 6 4 7 8 3 3 5 5 6 9 8 2 2 4 5 3 2 7 9 11 12 16 16 6 10 21 23 20 21 22 15 7 6 5 5 7 6 4 3 6 5 7 6 6 6 6 6 5 8 5 5 5 10 12 11 9 9 7 2 1 6 4 3 1 3 5 5 7 5 5 9 8 10 13 19 22 25 30 33 36 36
16 16 16 15 14 15 11 6 6 7 4 1 3 5 4 5 6 5 1 4 4 4 0 3 5 1 3 9 19 16 2 5 11 18 26 23 21 20 10 4 3 4 5 4 2 4 3 5 5 6 6 5 5 5 6 10 7 5 6 8 9 9 9 9 6 4 3 4 4 3 4 2 3 3 5 3 6 9 8 8 10 14 18 23 27 31 35 35
15 16 16 13 12 13 13 10 8 5 2 3 5 4 3 4 4 2 2 3 4 3 0 3 4 3 4 10 25 18 2 4 5 13 30 25 19 19 10 6 7 6 5 6 4 4 2 5 6 6 5 4 6 7 8 11 6 8 7 7 8 8 9 8 5 4 2 1 5 6 2 3 3 3 3 3 5 8 10 9 9 12 17 22 26 30 32 32
14 15 16 13 10 11 12 12 9 5 4 5 5 5 3 2 3 1 4 1 3 2 2 1 3 6 2 11 21 15 4 4 3 9 24 24 21 17 9 11 10 6 6 6 6 6 2 6 7 7 5 4 8 9 8 12 8 8 6 5 4 2 3 3 4 3 1 1 4 8 0 3 2 4 2 1 2 8 10 7 6 11 17 21 25 28 28 27
14 14 15 13 11 11 11 11 7 4 5 4 4 4 3 3 1 3 1 3 2 3 4 5 7 10 4 4 8 11 6 3 1 9 18 18 22 17 8 12 9 3 2 2 5 7 4 4 3 5 6 7 9 9 8 15 12 3 4 4 2 3 3 3 2 3 3 1 6 8 3 4 0 4 3 3 3 6 8 7 7 10 15 20 22 25 27 27
13 12 12 13 13 12 11 9 5 4 4 3 2 1 5 3 3 4 3 4 2 4 6 5 8 12 8 3 5 7 5 4 2 9 9 7 12 10 2 4 4 3 1 3 4 5 5 4 3 5 10 9 6 7 4 10 10 3 3 3 1 4 4 4 4 3 3 4 6 7 3 3 3 3 4 4 5 6 10 10 11 11 11 14 18 22 25 25
11 9 10 12 12 10 9 7 6 6 5 2 3 1 5 2 2 3 4 5 3 2 5 6 8 12 11 7 4 6 4 3 3 6 5 5 6 6 4 4 4 2 1 4 3 5 4 5 4 4 10 9 5 4 3 1 5 5 3 4 3 2 3 3 2 0 2 5 4 4 2 2 1 4 4 6 7 6 8 6 9 12 12 14 19 22 22 20
8 8 9 9 7 6 6 7 6 5 5 4 2 2 5 4 2 5 3 3 2 2 5 7 11 11 9 7 3 5 5 2 3 4 5 6 6 6 6 4 5 5 2 4 3 3 4 5 5 3 6 8 8 4 2 1 4 6 5 4 4 2 1 2 3 0 2 4 3 4 2 1 2 4 4 8 7 5 8 6 8 9 11 20 26 27 24 21
6 8 7 3 2 4 5 5 4 5 5 4 1 3 5 2 4 3 2 3 3 4 5 8 12 11 5 3 5 2 3 0 1 2 2 4 5 6 5 3 4 5 2 3 3 3 3 4 4 4 3 3 7 7 7 5 4 5 5 6 5 4 4 3 3 2 3 3 3 4 2 2 2 3 6 7 3 7 12 11 14 13 14 17 20 22 22 21
5 6 3 2 2 4 5 4 1 3 5 6 3 5 3 4 4 1 1 3 2 5 8 10 8 6 4 3 5 6 2 1 3 3 2 3 5 5 5 6 6 4 4 3 2 2 4 5 7 5 4 2 4 5 6 6 3 2 2 6 3 4 5 2 3 5 3 1 2 3 1 2 3 2 6 5 6 9 9 7 10 13 13 11 12 15 17 18
4 4 1 4 3 3 7 7 5 3 6 7 5 3 4 4 2 3 1 2 2 5 9 9 4 2 5 4 5 9 5 1 2 3 1 2 3 4 3 4 5 6 6 5 3 1 3 5 7 4 4 4 4 3 3 3 2 1 2 3 3 4 7 4 1 0 2 3 0 1 0 3 2 2 5 7 8 9 9 7 5 2 4 7 12 15 14 14
2 2 3 4 4 2 5 7 7 5 5 5 5 1 4 3 3 4 2 4 4 5 4 4 4 2 3 3 4 8 6 2 2 2 1 1 2 3 2 2 2 7 9 6 2 2 3 4 6 2 4 7 3 1 2 1 4 4 2 5 2 3 5 4 2 2 4 2 2 1 2 2 1 1 4 7 8 8 8 7 7 7 5 5 7 6 8 10
4 7 5 3 4 3 3 5 6 4 3 4 2 3 2 1 3 2 4 5 4 4 2 1 3 2 3 4 4 6 6 3 1 1 1 1 2 2 2 1 1 1 6 7 3 2 3 2 7 2 4 6 5 3 1 4 2 4 3 3 3 3 1 1 2 1 1 2 1 2 1 2 2 2 3 4 4 5 6 5 6 7 8 9 13 11 2 5
4 6 5 4 3 3 2 3 3 3 4 3 1 3 2 3 5 6 8 7 2 2 1 3 3 2 4 3 4 5 5 4 3 2 2 1 2 2 2 2 1 3 2 6 5 1 3 1 5 4 3 4 5 3 2 4 5 4 3 2 2 3 4 2 2 3 3 3 2 1 1 2 3 3 3 4 3 1 3 2 3 4 7 8 7 10 5 4
3 4 4 4 3 3 3 4 2 2 3 1 2 3 2 2 4 8 10 7 3 2 3 3 3 3 4 4 4 4 4 4 3 2 2 2 2 2 2 2 1 2 5 6 4 1 3 2 3 6 5 3 2 1 3 3 1 2 3 2 1 1 3 2 1 2 4 4 3 2 0 4 4 2 4 4 2 2 3 2 3 3 6 10 6 2 2 4
5 3 3 3 3 3 4 4 1 1 1 1 2 2 3 3 4 8 11 9 6 6 6 5 4 4 4 4 4 3 2 2 1 2 1 2 2 2 4 5 4 1 4 6 3 1 2 2 3 2 4 2 2 2 2 2 4 5 3 3 3 2 4 3 1 1 2 4 3 4 2 5 4 1 2 0 2 3 5 7 5 6 5 9 9 9 7 6
6 3 2 4 2 3 4 2 1 1 1 2 3 3 5 6 4 5 8 8 6 7 7 5 5 5 5 4 5 4 1 1 1 1 1 1 3 1 4 7 6 4 4 3 1 1 2 4 3 0 1 2 4 4 5 3 2 6 3 3 4 2 3 5 4 3 2 3 2 4 2 3 2 1 2 3 3 5 10 12 8 6 6 9 10 10 10 7
5 5 5 5 3 3 2 1 3 2 1 3 5 5 6 5 2 2 4 5 4 3 3 3 3 4 3 3 3 2 1 1 2 1 0 0 0 4 6 5 4 4 4 3 1 2 2 3 2 1 3 4 6 6 5 4 4 5 3 2 4 2 2 5 5 3 3 3 2 3 2 2 1 2 3 5 6 9 12 14 13 9 7 9 11 10 10 10
7 7 7 4 1 3 2 1 1 2 3 4 3 5 6 4 3 3 3 3 3 2 1 2 3 2 3 3 2 2 0 1 1 3 2 0 3 9 9 3 2 2 2 2 3 3 1 1 2 2 2 4 5 6 6 5 4 3 2 2 2 4 4 3 1 3 3 3 4 5 2 2 1 3 4 5 6 8 9 11 13 11 9 10 13 13 12 13
7 5 4 4 3 1 2 3 2 2 3 3 3 4 5 4 4 5 5 4 5 2 1 3 4 3 3 3 2 3 2 2 1 3 3 2 3 9 13 9 4 3 4 4 4 6 4 1 2 4 3 2 2 2 2 3 4 3 3 4 2 5 5 2 1 3 2 2 3 4 3 2 4 6 6 6 6 7 9 11 12 11 12 13 15 16 16 16
4 2 1 1 3 4 2 2 2 2 1 1 2 3 4 3 5 7 4 3 5 5 1 2 5 3 3 4 4 4 5 3 2 2 3 4 3 4 11 12 8 7 8 10 8 5 4 2 1 4 5 5 4 4 4 2 2 3 5 6 4 3 5 5 3 2 3 3 3 1 4 7 7 8 8 7 6 7 8 9 11 11 13 15 17 19 18 18
3 1 1 0 1 2 2 1 1 1 2 1 1 2 4 3 5 6 2 1 7 8 2 3 6 4 3 5 3 3 5 4 4 3 3 4 2 3 9 10 9 9 7 8 8 3 5 4 3 4 4 3 3 2 2 1 2 3 5 7 7 4 4 7 4 2 5 5 1 3 4 8 8 8 9 6 5 6 7 9 10 10 13 17 19 21 21 21
2 1 2 2 1 0 2 2 3 1 2 2 1 1 3 5 5 4 3 4 7 8 4 4 7 5 4 5 2 2 6 4 4 4 3 4 4 4 7 5 8 11 7 6 8 4 6 2 3 4 5 4 3 4 5 5 4 4 5 6 8 7 4 6 3 3 5 5 4 5 6 7 6 7 7 6 7 8 9 10 10 11 13 17 21 24 25 24
4 3 2 2 1 2 1 2 4 3 1 1 1 1 1 5 5 3 3 3 5 7 4 2 6 7 6 5 3 3 3 2 2 4 3 4 4 3 4 3 5 9 7 5 5 4 4 2 1 3 5 6 6 6 8 8 5 5 7 7 8 8 4 7 5 4 7 7 6 9 9 6 5 6 7 9 11 13 14 13 12 14 15 17 22 26 27 27
4 3 1 2 3 3 4 4 4 4 3 3 3 2 1 2 3 5 3 1 2 4 3 3 5 7 3 4 4 3 1 3 2 3 2 3 3 3 3 1 2 6 5 2 2 4 4 2 1 2 5 5 6 6 8 7 4 5 6 9 10 9 6 5 6 7 9 9 9 10 9 5 4 7 10 12 14 17 17 15 14 14 16 18 23 26 27 28
6 4 1 3 3 5 6 5 3 2 3 4 2 2 1 1 3 4 4 2 0 0 1 2 5 6 2 5 4 1 4 5 6 8 6 3 1 2 3 3 3 5 4 2 2 3 3 2 1 3 4 2 4 5 6 6 4 4 6 10 11 8 4 2 1 2 4 9 11 9 5 3 3 7 10 12 14 16 17 16 16 15 15 19 23 25 27 28
5 4 3 5 2 5 4 3 3 3 2 4 3 2 2 2 4 3 1 3 3 4 4 4 3 4 3 4 6 10 14 13 13 15 11 6 5 6 9 11 8 4 2 1 3 2 3 4 2 3 3 1 3 4 4 4 3 2 4 7 8 5 3 3 3 6 3 6 9 6 4 4 5 8 10 10 11 14 15 16 16 14 15 19 23 25 27 28
Wind_Direction
337 339 338 336 336 336 334 336 335 338 337 333 331 327 327 323 320 316 310 304 295 290 290 291 294 297 301 303 305 305 307 307 307 306 298 297 285 264 262 262 242 230 230 217 211 209 205 206 203 200 198 196 206 206 197 207 205 189 133 150 218 227 229 197 189 210 230 296 313 315 334 355 320 346 83 100 111 117 133 106 128 181 217 174 170 163 161 160
332 333 333 332 331 330 330 329 328 330 330 332 331 325 323 321 321 319 314 310 302 296 289 287 289 293 297 300 302 306 308 308 309 305 300 309 281 257 250 257 249 229 228 225 220 214 212 210 199 193 192 186 195 196 192 206 198 186 137 156 224 219 226 209 212 267 290 298 303 303 313 322 311 315 197 123 87 111 105 79 106 118 123 147 156 157 160 162
328 329 329 327 326 327 326 324 325 324 323 325 325 324 322 318 318 317 315 311 306 302 295 292 289 290 294 296 300 306 310 311 312 307 274 354 337 281 243 242 243 227 223 225 225 218 217 212 198 188 184 185 189 183 185 194 189 195 181 197 238 226 263 276 271 281 290 291 294 297 304 308 308 305 244 204 118 110 146 138 122 123 135 145 152 156 160 162
326 326 325 324 322 323 320 320 320 319 319 318 318 320 318 315 314 314 315 313 309 306 304 301 294 293 293 294 300 305 313 316 314 219 126 24 16 2 244 233 232 220 212 216 217 205 204 198 189 185 182 195 198 190 203 200 189 193 185 215 241 220 272 273 277 283 288 287 280 287 302 303 306 313 223 176 120 324 231 181 164 156 153 152 156 159 162 163
324 323 322 321 319 319 317 317 315 315 315 313 314 313 314 314 310 310 313 313 313 311 310 308 302 299 295 296 300 304 319 327 322 129 85 7 20 14 306 230 225 215 212 215 210 190 188 181 174 181 187 198 195 196 230 214 208 217 209 236 250 244 264 275 287 288 287 287 285 290 298 290 301 325 184 172 152 220 210 194 182 172 164 161 162 163 165 167
321 321 320 318 317 316 313 312 312 311 310 310 310 309 309 308 309 310 311 312 313 313 314 313 311 307 302 302 301 304 313 281 234 136 275 311 350 20 36 215 216 216 215 209 203 187 181 177 172 182 184 187 206 205 237 226 215 248 262 251 259 255 247 277 285 288 288 287 288 282 285 290 302 314 202 191 213 226 211 200 186 176 172 167 166 166 169 171
319 319 318 316 315 314 312 310 310 308 307 306 305 305 306 305 307 308 308 310 309 311 313 315 318 313 309 308 305 303 284 266 284 261 250 278 104 78 78 182 212 224 221 208 201 188 184 182 179 179 154 167 224 216 250 257 223 221 268 263 268 265 257 275 279 282 284 278 278 280 287 293 286 287 226 210 235 248 231 202 181 171 169 167 167 169 172 177
320 319 318 317 315 314 313 311 309 307 306 304 303 302 302 303 303 304 306 307 305 307 306 309 314 310 312 312 311 308 286 280 288 231 238 230 179 173 116 179 222 231 231 218 206 192 189 187 184 179 145 213 213 212 247 263 251 215 244 259 269 271 267 275 277 278 280 277 281 284 284 276 270 268 225 222 237 234 204 188 175 167 165 168 170 171 175 178
320 319 320 318 317 317 314 312 311 308 306 304 302 300 300 301 300 300 301 302 302 302 301 303 304 304 307 305 311 311 292 286 276 228 231 212 189 193 220 255 268 250 245 225 207 196 195 191 190 182 169 232 226 243 240 226 253 214 226 249 260 268 271 275 276 276 277 279 281 284 274 272 275 277 247 221 207 189 177 175 171 166 167 172 174 176 177 173
319 320 322 320 320 320 316 314 311 309 307 305 303 301 301 299 298 297 296 299 298 297 299 299 298 299 299 299 308 309 288 278 263 241 215 203 192 201 237 273 286 273 261 231 210 205 203 196 193 189 203 249 232 247 238 198 242 246 243 255 260 266 271 272 273 273 276 280 271 259 259 272 280 285 252 191 175 174 166 163 167 167 170 176 178 179 176 167
318 319 321 320 320 319 316 315 311 309 308 305 304 302 302 300 298 296 293 295 294 295 298 297 298 296 295 291 266 257 273 258 243 227 197 194 195 221 255 272 281 281 270 249 230 216 206 198 193 187 209 258 261 269 252 223 244 264 273 280 279 276 275 267 265 269 270 277 264 241 242 274 286 258 218 177 172 171 162 158 164 169 173 179 180 180 174 167
315 316 318 318 317 316 314 312 309 308 306 305 304 302 302 300 298 295 294 294 292 293 294 296 298 293 294 283 264 259 272 260 241 234 227 214 214 236 256 258 264 272 275 273 260 227 205 200 196 192 219 257 314 320 288 275 275 276 278 292 295 306 296 258 246 256 246 247 261 235 243 286 289 251 230 167 169 168 160 157 161 169 173 179 182 178 174 172
313 314 315 314 313 312 310 308 306 305 304 303 302 301 301 298 296 294 294 293 291 292 293 295 295 293 292 274 267 265 268 268 262 255 248 237 230 232 240 244 249 258 266 273 278 244 211 204 204 217 246 272 289 292 292 298 296 280 262 248 303 326 308 256 234 242 228 245 248 191 222 281 260 259 242 166 168 162 154 158 159 166 173 181 182 176 174 175
313 313 313 312 310 309 307 306 304 303 302 301 300 300 299 296 294 292 293 292 291 292 294 294 292 293 281 268 278 288 277 268 257 251 243 235 231 223 225 231 239 245 250 256 268 260 225 216 220 240 264 269 271 284 297 302 295 291 291 286 308 288 280 290 292 227 209 260 213 160 201 260 260 264 238 174 170 164 156 161 160 164 177 182 180 173 166 171
312 313 313 311 309 309 307 306 304 302 301 300 299 300 299 295 292 291 290 289 290 292 293 293 290 290 281 280 288 290 279 268 257 253 240 230 226 217 216 222 231 234 240 248 251 257 240 228 228 244 268 268 267 281 314 325 335 3 279 288 317 212 265 303 304 212 208 259 189 158 220 265 261 263 240 177 172 169 158 160 162 169 179 177 175 167 152 162
314 314 313 312 312 311 310 307 305 304 302 300 300 301 299 294 292 291 289 287 289 290 290 286 282 285 288 289 292 285 285 289 284 280 239 220 219 218 213 221 233 230 234 241 241 246 246 241 240 247 257 262 247 206 327 328 322 360 197 255 284 260 299 317 307 252 219 243 225 175 207 269 262 265 252 177 175 172 154 155 166 174 177 170 167 161 152 160
315 314 314 315 314 314 313 310 308 306 303 300 301 302 300 297 295 291 288 286 283 282 280 272 277 289 273 268 279 283 291 325 339 327 266 220 217 221 213 218 231 232 237 245 249 253 251 242 239 249 248 242 152 139 301 274 264 320 359 259 261 257 283 297 307 310 302 238 265 234 209 245 257 272 270 173 176 171 148 156 171 175 171 161 160 158 160 166
314 313 314 316 315 315 313 311 310 306 302 302 306 309 307 307 307 299 291 286 277 275 271 250 237 318 271 253 270 283 286 319 313 311 308 246 214 214 214 217 226 236 244 252 251 244 241 233 208 247 260 213 132 125 190 226 202 221 269 260 284 284 267 263 273 296 349 2 252 284 270 261 266 270 276 168 176 171 152 166 174 168 159 156 158 162 170 172
312 312 314 314 314 314 312 312 311 306 303 304 312 315 321 333 327 317 325 309 250 205 255 229 196 224 267 266 278 288 288 289 292 291 296 278 220 210 216 227 233 235 229 230 245 217 206 216 202 241 245 213 191 166 195 205 171 184 195 181 241 280 275 264 260 255 297 312 267 270 258 264 266 258 266 173 177 168 155 168 165 153 151 153 156 167 179 181
310 310 312 312 312 312 312 312 308 304 305 307 319 326 349 360 347 338 339 310 274 265 270 259 246 253 265 272 277 288 294 289 287 277 280 289 236 209 212 228 233 227 195 165 217 211 178 198 238 227 201 187 209 207 199 202 213 243 234 228 245 262 277 272 273 271 273 287 269 252 240 259 253 253 267 169 168 159 155 163 156 152 153 156 162 174 183 186
309 309 310 310 311 313 313 312 306 303 306 311 326 339 6 10 4 325 323 308 289 281 272 270 267 263 265 268 272 284 296 295 281 259 258 268 228 202 204 214 207 219 220 175 196 244 161 210 237 210 183 197 216 208 193 211 247 252 250 276 281 250 268 276 277 276 266 190 262 262 249 261 252 259 272 149 156 162 163 162 158 158 158 163 172 180 183 186
308 307 309 309 311 315 314 311 303 300 307 311 322 331 352 3 358 328 314 298 293 290 279 275 269 261 265 266 267 273 277 283 271 249 243 232 209 196 188 189 177 211 231 141 174 275 223 234 243 215 191 202 235 196 157 202 234 237 237 285 287 266 282 288 280 278 264 151 261 275 259 268 277 281 72 136 166 177 172 168 164 163 163 169 176 180 181 185
307 306 308 309 312 316 317 312 301 298 305 310 318 324 336 340 345 338 307 266 291 290 275 265 255 253 261 262 262 260 243 246 254 243 237 209 199 197 182 176 181 195 187 160 188 210 238 248 235 215 185 170 249 245 150 190 255 225 201 219 267 271 292 286 288 289 259 202 251 283 278 289 332 68 43 16 179 171 170 170 169 169 171 175 180 181 181 185
306 307 309 313 315 317 320 311 299 297 304 315 320 310 317 323 337 343 313 244 285 286 274 265 253 247 253 258 255 235 223 229 230 233 231 206 192 194 191 178 164 182 201 188 189 207 239 243 184 162 162 169 226 248 179 200 260 236 204 197 242 260 241 242 277 303 299 275 244 342 332 330 339 350 19 5 78 144 155 160 167 175 177 178 179 182 185 187
308 310 313 318 317 317 322 312 296 300 310 315 306 294 313 317 327 340 325 265 286 279 287 275 248 243 245 249 240 217 218 228 224 224 222 209 197 188 190 187 168 193 209 183 180 215 245 238 148 129 161 173 204 238 200 184 228 269 222 203 217 239 242 245 278 331 356 314 305 39 353 325 337 4 16 357 69 115 145 154 164 175 174 175 178 183 188 188
310 312 318 321 319 319 325 318 299 313 314 300 273 302 314 300 317 332 333 25 311 266 318 276 225 245 241 223 207 195 197 247 235 225 212 209 206 194 182 183 176 200 192 168 170 221 242 207 152 160 180 175 196 237 212 169 183 268 234 204 210 224 235 243 263 302 349 274 278 62 84 275 322 6 3 348 104 125 147 155 165 171 172 178 182 184 186 186
312 313 319 323 322 323 327 327 317 318 316 280 299 303 291 284 311 321 354 26 315 258 303 198 196 348 290 209 180 162 132 249 225 215 204 203 204 198 197 184 174 202 172 130 208 233 195 169 168 177 174 176 203 238 209 162 152 247 228 190 204 221 223 225 225 207 219 270 309 14 117 148 303 336 5 25 122 134 148 157 169 175 177 181 185 187 187 187
312 312 316 321 322 322 323 324 326 327 292 292 307 290 271 282 290 298 83 39 294 259 138 206 217 335 323 192 175 169 179 171 159 208 202 196 193 190 196 195 182 200 171 136 213 250 152 185 196 172 164 183 210 228 195 154 163 242 222 185 209 215 207 207 193 192 225 354 314 308 68 102 293 300 14 55 134 158 171 174 177 180 182 185 188 190 190 191
311 312 314 317 318 315 314 316 321 317 284 295 311 289 258 246 265 53 86 12 287 300 348 21 352 339 13 165 185 201 229 168 159 197 189 190 197 191 196 207 190 189 185 162 212 245 232 214 195 151 163 206 227 236 176 158 199 236 197 182 218 206 165 170 146 151 73 57 262 272 227 105 282 290 338 9 182 187 186 183 185 186 186 191 195 196 196 197
311 313 312 313 317 312 310 315 312 288 282 301 310 273 206 182 72 65 134 253 283 326 355 32 8 348 13 142 217 243 256 261 82 148 169 184 195 195 199 204 187 134 181 219 234 243 266 250 207 155 197 216 233 244 183 180 206 200 142 186 253 356 38 63 89 101 79 275 255 256 224 116 198 272 224 198 217 197 184 177 191 198 196 198 203 203 202 201
312 314 309 311 316 315 318 318 294 267 275 297 328 206 160 124 59 104 211 270 308 326 357 19 1 353 347 292 253 250 259 291 83 129 154 168 182 192 173 179 175 81 15 294 269 284 316 289 262 222 227 224 228 254 220 193 202 151 106 160 230 319 10 34 1 54 97 247 263 268 257 105 112 243 232 244 263 207 190 189 188 190 198 208 211 207 205 205
316 310 303 307 313 318 322 309 279 262 243 227 336 308 147 90 19 188 246 323 343 327 360 355 342 342 322 295 248 221 224 236 193 140 144 148 162 192 186 174 178 130 293 248 253 316 305 249 267 270 244 224 199 258 298 161 165 147 118 96 90 308 347 4 307 81 179 238 264 289 290 94 162 236 245 288 289 212 195 207 189 176 180 200 210 211 213 216
315 302 302 304 314 328 317 295 274 247 221 212 307 348 101 92 231 226 275 323 313 320 358 345 327 325 312 310 306 225 201 208 222 173 152 154 161 197 217 205 170 165 218 208 204 290 293 288 298 304 267 220 181 190 241 181 154 155 156 137 128 128 72 292 271 251 247 238 266 307 336 86 273 280 293 304 296 176 149 157 174 181 198 203 202 204 211 218
309 306 309 290 340 359 338 303 259 223 208 196 166 59 89 135 234 249 305 262 271 325 354 344 323 321 321 310 322 285 172 36 307 147 123 131 156 199 231 237 181 166 167 162 174 198 215 296 267 206 255 221 185 191 185 163 154 172 163 136 140 152 156 220 224 185 227 240 299 326 9 133 206 297 313 312 331 114 128 153 172 193 226 227 208 200 206 212
312 316 307 186 118 38 35 33 218 196 189 177 109 69 129 205 251 234 263 269 303 342 338 333 318 317 330 299 319 355 64 66 18 72 106 146 170 194 203 212 201 152 126 164 218 179 173 248 254 237 256 229 211 214 162 122 123 212 140 109 145 184 154 162 193 174 176 153 352 345 34 195 206 293 336 2 44 75 93 122 158 183 214 227 209 201 203 207
329 333 210 171 159 76 62 64 79 123 173 162 91 64 192 216 233 185 264 322 335 335 332 335 332 320 331 322 327 350 14 95 8 28 63 190 200 205 199 220 204 170 155 163 212 185 143 249 274 307 303 261 242 235 150 137 185 199 131 158 207 170 129 116 170 140 86 130 291 15 133 301 327 359 5 33 46 47 56 59 71 123 214 218 212 203 199 206
18 68 138 172 192 145 86 83 87 109 166 138 96 206 218 224 207 190 343 347 315 321 351 352 329 308 331 345 325 332 353 16 358 3 316 301 248 208 192 284 218 188 189 172 197 205 153 255 284 313 289 283 282 130 73 93 139 129 182 205 186 91 97 107 130 17 38 153 258 17 162 266 30 59 351 34 49 43 43 48 48 32 15 328 291 246 198 199
86 103 111 135 186 188 128 109 101 108 125 99 92 241 214 232 243 253 329 334 318 323 12 244 275 292 343 341 308 311 331 332 303 168 206 301 277 217 154 204 341 200 196 176 195 253 141 249 291 280 248 293 349 72 39 340 49 126 170 172 104 109 149 75 129 127 94 173 277 359 169 209 167 216 329 19 35 50 57 62 60 49 50 30 356 347 18 141
95 112 106 109 165 198 167 152 142 94 73 79 222 253 218 243 271 290 304 310 288 270 280 225 229 310 325 299 272 297 308 272 224 189 179 194 250 253 133 163 256 6 57 137 171 233 92 171 280 296 280 312 1 56 164 304 348 48 73 31 32 132 159 179 155 152 154 167 185 56 7 272 223 248 310 306 291 87 99 105 102 104 113 100 27 1 13 88
120 119 109 120 158 194 195 203 196 87 65 133 199 228 253 257 267 284 297 302 270 240 257 236 230 281 288 276 263 273 281 256 219 202 213 189 205 256 225 181 202 359 35 67 121 113 53 119 238 295 330 5 353 289 197 204 171 65 67 48 357 62 118 144 130 119 129 147 168 141 187 268 250 280 309 293 251 164 144 86 40 56 124 142 152 164 201 194
135 108 112 157 169 194 197 203 222 77 105 225 217 222 270 293 277 287 302 302 272 246 244 248 258 255 261 279 269 246 258 280 236 160 217 214 181 232 223 190 172 134 55 47 48 79 88 133 178 295 353 27 256 294 316 228 164 139 130 144 164 148 123 130 239 292 107 124 161 149 178 264 275 316 322 28 149 152 110 88 46 13 69 119 143 152 161 180
133 94 132 177 189 199 190 186 290 3 138 236 283 275 276 287 282 290 306 299 270 242 235 240 250 245 238 239 243 238 234 312 308 166 169 211 179 217 244 204 167 115 99 92 326 249 138 109 106 80 292 252 274 324 353 335 100 110 108 141 148 125 107 134 193 239 112 106 141 116 116 262 289 29 102 113 119 108 99 100 89 47 65 102 123 136 139 143
114 94 135 172 220 221 203 341 338 339 284 270 294 292 280 278 274 296 300 284 260 244 236 238 250 254 242 232 245 256 189 39 314 289 43 302 286 330 299 235 162 89 93 117 299 317 40 71 85 310 304 308 313 327 339 347 46 72 41 66 111 104 110 148 179 186 135 139 136 82 69 249 275 65 105 113 108 104 103 105 101 82 73 97 110 116 119 117
110 103 125 124 282 244 219 260 296 296 290 297 318 310 300 281 243 266 281 268 263 265 251 262 281 299 280 271 284 284 226 103 7 348 18 9 4 14 11 17 106 63 87 161 200 195 177 85 110 88 358 351 342 334 335 344 16 54 352 346 94 104 96 129 152 67 108 170 145 122 172 243 156 114 110 107 104 98 92 95 98 91 84 92 99 101 104 107
115 106 121 92 62 97 154 186 202 224 277 319 341 318 316 305 280 285 278 272 285 280 222 286 291 292 297 318 349 334 349 90 75 8 23 356 353 21 24 29 56 76 73 83 129 156 158 165 142 141 163 182 205 254 267 302 329 347 340 338 22 74 74 105 111 76 130 190 103 120 175 187 135 129 123 116 109 101 95 97 100 97 94 96 99 100 103 105
118 109 168 91 66 81 112 204 187 160 221 355 8 317 325 323 316 317 289 270 321 332 335 317 315 317 344 1 12 352 352 20 38 56 40 354 332 3 7 18 46 68 73 68 66 108 119 55 75 146 157 172 187 225 238 232 321 335 339 343 355 53 79 88 86 103 173 146 52 251 179 145 140 139 135 133 119 109 105 99 97 95 95 97 98 100 102 102
105 104 193 226 359 36 41 344 68 143 221 143 95 329 341 341 329 335 321 307 345 347 4 12 6 26 9 351 11 357 341 354 19 43 28 347 328 338 352 10 28 25 46 55 30 59 104 40 13 89 97 124 162 245 302 54 76 7 358 350 336 342 72 82 85 151 147 117 68 249 162 134 141 141 135 128 104 91 77 70 77 87 93 96 95 95 95 96
100 142 157 133 212 290 45 355 344 335 224 182 139 323 2 9 358 347 325 325 351 2 27 12 0 12 353 339 58 24 342 359 16 360 355 1 355 347 352 8 15 10 28 41 17 58 112 49 5 88 82 57 57 49 46 66 79 46 32 11 343 337 50 93 121 183 133 125 172 166 130 122 127 120 107 88 76 77 70 68 78 85 86 90 91 90 90 91
102 121 130 102 139 183 177 320 340 2 290 253 352 339 35 19 357 310 286 317 354 3 40 49 337 336 343 359 83 75 353 35 30 321 328 13 5 353 356 350 356 8 31 53 25 46 96 68 10 103 83 37 28 53 62 59 58 42 27 19 4 350 31 100 121 126 103 104 122 118 105 92 94 96 89 85 89 91 85 76 75 78 79 82 85 86 86 87
110 118 153 86 76 28 6 359 10 23 353 349 6 343 105 66 336 297 293 348 1 338 31 56 318 303 325 15 63 100 203 162 164 263 293 33 15 2 9 330 321 357 15 60 25 16 50 126 199 90 75 25 15 59 65 48 52 54 23 10 9 1 8 68 107 109 96 95 100 103 100 82 79 98 100 98 94 87 79 65 55 66 80 85 86 85 84 85
115 107 108 112 59 0 2 8 19 54 12 355 341 314 359 137 277 288 286 295 99 227 345 348 305 294 337 19 32 329 258 225 207 235 240 196 182 329 313 280 305 338 346 25 38 26 58 122 147 74 85 19 7 52 52 29 36 46 19 1 356 355 352 358 67 79 111 126 119 111 113 111 108 105 96 90 86 81 78 71 63 65 77 85 86 86 86 86
130 119 118 120 76 353 4 16 17 65 26 324 300 300 340 324 323 348 314 306 2 35 8 350 320 319 349 4 349 320 303 291 276 274 273 245 233 265 270 273 289 294 239 120 63 72 118 133 124 89 98 65 23 39 34 34 42 17 358 351 334 316 315 328 2 13 32 128 132 134 135 122 120 111 96 89 87 84 84 86 85 81 75 74 77 80 84 86
Height
1507 1507 1506 1505 1504 1503 1502 1501 1500 1499 1499 1497 1497 1496 1495 1494 1493 1492 1491 1491 1490 1489 1489 1488 1488 1487 1486 1485 1484 1482 1481 1479 1478 1477 1475 1473 1473 1473 1473 1473 1474 1475 1476 1477 1478 1479 1480 1481 1482 1483 1484 1485 1486 1487 1489 1490 1491 1493 1495 1498 1499 1496 1491 1485 1483 1482 1480 1476 1473 1470 1472 1474 1472 1468 1466 1465 1464 1463 1465 1466 1467 1468 1468 1469 1471 1472 1473 1476
1507 1506 1506 1505 1504 1503 1502 1501 1500 1499 1498 1497 1496 1495 1494 1494 1493 1492 1491 1490 1489 1488 1487 1487 1487 1486 1486 1485 1483 1481 1479 1477 1476 1474 1473 1472 1472 1472 1472 1472 1473 1474 1475 1476 1477 1478 1479 1480 1481 1482 1483 1484 1485 1486 1488 1488 1489 1491 1493 1497 1495 1490 1484 1480 1480 1479 1477 1476 1474 1472 1472 1474 1473 1471 1469 1468 1467 1465 1466 1467 1468 1468 1470 1471 1472 1474 1475 1475
1507 1506 1505 1505 1504 1503 1502 1501 1500 1499 1498 1497 1496 1495 1494 1493 1492 1491 1490 1490 1489 1488 1487 1486 1486 1485 1485 1484 1482 1481 1479 1476 1473 1471 1471 1471 1471 1470 1471 1471 1472 1473 1474 1475 1477 1478 1479 1480 1480 1481 1482 1484 1484 1485 1486 1486 1487 1487 1490 1494 1488 1483 1481 1479 1480 1479 1478 1477 1474 1473 1472 1471 1471 1471 1469 1468 1468 1467 1467 1466 1467 1469 1470 1472 1473 1474 1475 1476
1507 1506 1505 1504 1503 1502 1501 1500 1499 1499 1497 1497 1495 1495 1493 1492 1492 1491 1490 1489 1488 1487 1486 1486 1485 1484 1484 1483 1482 1481 1479 1475 1471 1470 1471 1471 1470 1470 1469 1470 1471 1473 1474 1475 1476 1477 1478 1479 1480 1481 1482 1483 1484 1485 1485 1484 1485 1485 1487 1488 1482 1481 1480 1477 1479 1478 1477 1476 1474 1473 1472 1470 1468 1469 1468 1467 1469 1469 1466 1463 1463 1465 1467 1469 1472 1474 1474 1476
1506 1505 1505 1504 1503 1502 1501 1500 1499 1498 1497 1496 1495 1494 1493 1492 1491 1490 1489 1488 1487 1487 1486 1485 1484 1484 1483 1482 1481 1480 1480 1477 1470 1470 1471 1470 1470 1470 1469 1470 1471 1472 1473 1474 1475 1476 1477 1479 1479 1481 1482 1482 1483 1484 1483 1482 1483 1484 1483 1482 1479 1481 1480 1476 1477 1478 1476 1475 1473 1472 1472 1468 1466 1468 1467 1467 1468 1466 1462 1461 1461 1462 1463 1466 1469 1472 1474 1475
1506 1505 1504 1503 1502 1501 1500 1499 1498 1497 1496 1495 1494 1493 1492 1491 1491 1490 1489 1488 1487 1486 1485 1484 1484 1483 1482 1481 1481 1480 1481 1477 1470 1470 1470 1470 1471 1470 1469 1470 1471 1472 1473 1474 1474 1475 1476 1478 1479 1480 1481 1481 1482 1482 1481 1481 1483 1484 1482 1479 1479 1480 1479 1476 1476 1476 1475 1474 1472 1471 1470 1467 1466 1468 1467 1466 1464 1461 1460 1460 1462 1463 1463 1465 1467 1470 1472 1474
1505 1504 1503 1502 1502 1501 1500 1499 1497 1496 1496 1495 1494 1493 1492 1491 1490 1489 1488 1487 1486 1485 1485 1484 1483 1482 1481 1481 1480 1479 1480 1474 1469 1470 1470 1469 1470 1470 1470 1470 1471 1472 1472 1473 1474 1475 1475 1477 1478 1479 1480 1481 1481 1481 1481 1481 1482 1483 1482 1478 1477 1478 1477 1475 1474 1474 1473 1472 1470 1469 1469 1467 1466 1467 1467 1465 1462 1461 1461 1461 1463 1465 1466 1467 1467 1469 1471 1472
1504 1504 1503 1502 1501 1500 1499 1498 1497 1496 1495 1493 1493 1492 1491 1490 1489 1488 1487 1487 1485 1485 1484 1483 1483 1482 1481 1480 1479 1478 1476 1471 1469 1469 1469 1469 1470 1470 1470 1470 1471 1471 1472 1473 1473 1474 1475 1476 1477 1478 1480 1481 1480 1480 1480 1481 1481 1482 1480 1477 1476 1476 1475 1473 1473 1472 1471 1470 1468 1468 1468 1465 1464 1465 1466 1464 1462 1461 1460 1462 1464 1466 1468 1469 1469 1469 1470 1472
1504 1503 1502 1501 1500 1499 1498 1497 1496 1495 1494 1493 1491 1491 1490 1489 1488 1487 1486 1486 1485 1484 1483 1483 1482 1481 1481 1480 1479 1477 1472 1468 1468 1468 1468 1469 1469 1469 1470 1470 1471 1471 1472 1473 1473 1474 1475 1475 1476 1477 1479 1479 1480 1479 1479 1482 1481 1478 1477 1476 1475 1474 1473 1472 1471 1471 1470 1469 1468 1468 1466 1462 1461 1464 1464 1462 1462 1461 1460 1462 1464 1466 1468 1470 1470 1469 1470 1474
1503 1502 1501 1500 1499 1498 1497 1496 1495 1493 1493 1492 1490 1490 1489 1488 1487 1486 1485 1485 1484 1483 1482 1482 1481 1481 1480 1479 1479 1477 1469 1467 1468 1467 1468 1468 1468 1469 1470 1470 1471 1471 1472 1472 1473 1473 1473 1474 1476 1477 1478 1478 1478 1478 1478 1480 1479 1475 1475 1475 1474 1473 1472 1471 1470 1469 1468 1468 1467 1468 1465 1460 1459 1463 1463 1461 1461 1461 1460 1462 1464 1467 1469 1470 1471 1472 1474 1476
1502 1501 1500 1499 1499 1497 1496 1495 1494 1492 1491 1490 1489 1488 1487 1486 1485 1484 1484 1483 1482 1482 1481 1481 1480 1480 1478 1478 1478 1475 1468 1467 1467 1466 1467 1467 1468 1469 1469 1470 1470 1471 1471 1472 1472 1472 1473 1475 1477 1478 1479 1478 1477 1477 1476 1476 1475 1474 1474 1473 1472 1471 1470 1469 1468 1467 1467 1466 1465 1465 1463 1459 1460 1462 1460 1459 1460 1461 1461 1462 1465 1467 1469 1471 1472 1474 1476 1476
1500 1500 1499 1498 1497 1496 1495 1494 1492 1491 1490 1489 1488 1487 1486 1485 1484 1483 1482 1482 1481 1480 1480 1479 1479 1478 1477 1476 1473 1469 1466 1467 1467 1466 1466 1466 1467 1467 1468 1469 1469 1470 1471 1471 1471 1472 1474 1475 1477 1477 1477 1477 1477 1477 1474 1473 1474 1473 1473 1473 1471 1469 1468 1466 1466 1465 1465 1464 1461 1463 1466 1463 1461 1460 1457 1457 1459 1461 1462 1464 1467 1469 1471 1473 1473 1476 1477 1477
1499 1498 1498 1497 1496 1495 1494 1492 1491 1490 1488 1488 1487 1486 1485 1483 1482 1482 1481 1481 1479 1479 1478 1478 1477 1476 1476 1471 1465 1465 1466 1466 1465 1464 1464 1466 1466 1466 1467 1468 1468 1469 1470 1471 1471 1472 1474 1475 1476 1476 1476 1477 1476 1476 1473 1472 1473 1472 1472 1472 1472 1472 1468 1464 1463 1463 1463 1463 1459 1463 1472 1468 1460 1458 1456 1458 1459 1460 1463 1465 1468 1471 1472 1473 1474 1476 1477 1477
1498 1497 1496 1495 1494 1493 1492 1490 1489 1488 1487 1486 1485 1484 1483 1482 1481 1479 1479 1479 1478 1478 1477 1476 1476 1475 1474 1466 1461 1463 1463 1462 1462 1461 1464 1465 1466 1466 1467 1467 1467 1468 1469 1470 1471 1472 1474 1475 1476 1476 1476 1476 1475 1474 1473 1472 1472 1472 1472 1472 1475 1477 1470 1463 1463 1462 1462 1461 1457 1462 1472 1467 1459 1456 1455 1458 1459 1459 1463 1466 1468 1469 1470 1472 1474 1476 1477 1477
1496 1495 1494 1494 1493 1492 1490 1489 1488 1486 1485 1484 1483 1482 1481 1480 1478 1477 1477 1476 1476 1476 1475 1475 1474 1474 1471 1462 1459 1461 1460 1459 1459 1459 1462 1464 1464 1465 1465 1466 1467 1467 1469 1470 1470 1472 1474 1475 1476 1476 1475 1474 1474 1475 1475 1474 1472 1472 1476 1476 1476 1478 1472 1464 1462 1462 1461 1460 1457 1462 1469 1466 1459 1456 1454 1457 1459 1459 1462 1466 1468 1468 1468 1471 1473 1475 1476 1478
1495 1494 1493 1492 1491 1490 1489 1487 1486 1484 1483 1482 1481 1481 1479 1478 1476 1476 1475 1474 1474 1474 1474 1474 1473 1473 1471 1462 1457 1458 1458 1458 1458 1459 1460 1461 1463 1464 1465 1466 1466 1467 1468 1469 1470 1472 1473 1474 1475 1474 1474 1473 1474 1474 1476 1477 1475 1475 1479 1478 1477 1477 1475 1468 1462 1460 1460 1459 1458 1460 1465 1463 1458 1455 1453 1456 1459 1460 1463 1465 1467 1466 1467 1470 1472 1475 1476 1477
1493 1492 1491 1490 1489 1488 1487 1485 1484 1483 1482 1480 1480 1479 1478 1476 1474 1473 1472 1472 1472 1472 1473 1472 1472 1473 1467 1459 1457 1457 1458 1458 1457 1459 1459 1460 1462 1463 1465 1465 1465 1467 1467 1468 1470 1470 1472 1473 1473 1473 1472 1472 1472 1474 1480 1483 1480 1479 1480 1479 1478 1477 1475 1472 1465 1460 1459 1460 1460 1459 1461 1460 1457 1453 1453 1456 1458 1460 1463 1465 1464 1465 1467 1470 1472 1475 1476 1476
1492 1491 1489 1488 1487 1486 1485 1484 1483 1481 1480 1479 1478 1477 1476 1474 1472 1471 1470 1470 1470 1471 1472 1471 1473 1473 1462 1455 1456 1456 1457 1457 1457 1458 1459 1459 1461 1462 1464 1464 1464 1466 1467 1468 1468 1469 1471 1471 1471 1472 1471 1471 1471 1474 1481 1483 1480 1481 1480 1479 1478 1476 1475 1473 1468 1462 1459 1461 1461 1461 1461 1459 1456 1454 1453 1456 1458 1460 1462 1462 1462 1464 1467 1469 1471 1474 1476 1476
1490 1489 1488 1487 1486 1485 1484 1483 1481 1480 1479 1478 1478 1476 1475 1473 1471 1469 1469 1469 1469 1469 1469 1467 1469 1468 1458 1452 1455 1456 1456 1456 1456 1456 1457 1458 1460 1461 1463 1463 1464 1465 1467 1468 1467 1467 1468 1469 1471 1472 1471 1471 1472 1473 1475 1476 1475 1476 1477 1478 1479 1477 1474 1470 1466 1462 1460 1461 1461 1460 1460 1456 1454 1453 1453 1456 1457 1460 1462 1461 1462 1465 1467 1469 1471 1473 1474 1475
1489 1488 1487 1485 1485 1484 1483 1482 1480 1479 1477 1477 1476 1475 1474 1473 1470 1469 1469 1468 1467 1465 1465 1463 1463 1461 1455 1452 1453 1455 1455 1455 1454 1454 1455 1457 1458 1460 1461 1462 1463 1464 1466 1466 1467 1466 1466 1470 1470 1469 1470 1470 1471 1471 1471 1472 1473 1474 1476 1478 1478 1479 1475 1466 1464 1461 1459 1462 1459 1456 1457 1455 1452 1450 1451 1454 1457 1459 1461 1461 1462 1464 1466 1468 1470 1471 1471 1473
1487 1486 1485 1484 1484 1483 1482 1481 1479 1478 1477 1476 1475 1475 1475 1474 1474 1472 1469 1465 1462 1461 1461 1460 1461 1457 1451 1450 1452 1455 1456 1454 1452 1452 1454 1456 1456 1458 1459 1461 1463 1464 1465 1465 1466 1465 1466 1469 1467 1466 1468 1468 1468 1469 1471 1472 1473 1474 1475 1477 1478 1479 1473 1464 1463 1460 1457 1462 1459 1453 1455 1452 1449 1449 1450 1453 1455 1456 1457 1459 1462 1463 1465 1466 1466 1468 1470 1473
1486 1485 1484 1483 1482 1481 1480 1479 1478 1477 1476 1475 1475 1475 1475 1476 1476 1474 1471 1465 1459 1457 1457 1456 1457 1453 1447 1448 1450 1454 1458 1455 1451 1449 1452 1455 1455 1456 1457 1459 1462 1463 1463 1464 1466 1468 1469 1467 1463 1464 1466 1467 1468 1470 1472 1473 1473 1475 1476 1478 1478 1475 1471 1464 1460 1457 1456 1460 1457 1453 1454 1450 1447 1450 1450 1450 1450 1451 1452 1453 1456 1459 1463 1464 1464 1466 1469 1471
1485 1484 1483 1482 1481 1480 1479 1478 1476 1475 1475 1474 1474 1474 1475 1475 1474 1473 1472 1468 1458 1451 1452 1450 1449 1448 1444 1444 1447 1452 1455 1454 1451 1448 1449 1452 1452 1453 1455 1457 1460 1461 1462 1464 1466 1470 1471 1464 1460 1463 1465 1466 1468 1469 1472 1473 1474 1476 1476 1479 1477 1473 1473 1469 1461 1457 1457 1458 1456 1454 1454 1451 1449 1448 1448 1449 1447 1448 1451 1452 1454 1455 1456 1459 1461 1464 1466 1467
1484 1483 1482 1480 1479 1478 1477 1476 1475 1474 1474 1473 1474 1474 1474 1473 1473 1471 1469 1468 1458 1446 1443 1443 1442 1443 1439 1439 1444 1448 1449 1448 1447 1446 1447 1449 1450 1452 1453 1454 1458 1460 1461 1462 1463 1468 1466 1458 1457 1461 1463 1466 1467 1468 1471 1473 1474 1475 1474 1476 1475 1470 1471 1469 1464 1460 1456 1455 1454 1455 1453 1452 1453 1451 1450 1450 1448 1449 1453 1455 1457 1458 1457 1459 1461 1464 1466 1466
1482 1481 1480 1478 1477 1476 1476 1474 1473 1473 1473 1472 1473 1472 1473 1472 1472 1471 1468 1468 1459 1444 1439 1439 1438 1437 1433 1437 1441 1442 1445 1443 1441 1442 1444 1446 1447 1450 1452 1453 1456 1459 1460 1460 1463 1466 1461 1456 1457 1460 1462 1465 1466 1467 1469 1471 1474 1473 1470 1469 1468 1466 1466 1465 1463 1462 1461 1458 1454 1455 1460 1459 1459 1460 1459 1456 1453 1454 1455 1455 1458 1459 1460 1462 1462 1464 1466 1467
1481 1480 1478 1477 1475 1474 1474 1472 1472 1472 1471 1472 1472 1471 1473 1472 1471 1471 1469 1471 1462 1444 1438 1438 1437 1434 1431 1435 1437 1440 1445 1439 1434 1439 1442 1443 1445 1447 1450 1452 1453 1456 1457 1458 1462 1461 1456 1453 1455 1458 1460 1462 1465 1466 1464 1467 1473 1474 1465 1460 1461 1462 1464 1464 1463 1464 1465 1463 1455 1455 1464 1465 1461 1464 1465 1462 1459 1459 1458 1458 1458 1459 1460 1461 1461 1463 1464 1466
1479 1478 1477 1476 1474 1473 1472 1471 1471 1471 1470 1471 1471 1471 1472 1471 1472 1470 1469 1475 1464 1443 1437 1438 1436 1434 1431 1433 1433 1439 1443 1434 1430 1435 1436 1440 1444 1445 1449 1451 1451 1452 1452 1457 1462 1456 1450 1452 1454 1456 1458 1462 1465 1464 1460 1461 1470 1469 1457 1454 1458 1459 1462 1462 1461 1463 1463 1460 1456 1454 1459 1461 1461 1466 1468 1465 1464 1463 1461 1461 1461 1460 1461 1461 1462 1463 1463 1464
1478 1477 1475 1475 1473 1472 1471 1470 1470 1469 1470 1470 1469 1471 1471 1470 1472 1469 1473 1478 1458 1437 1436 1436 1434 1433 1432 1432 1432 1432 1433 1429 1430 1431 1431 1438 1442 1442 1447 1448 1448 1449 1448 1454 1460 1453 1447 1451 1452 1454 1459 1461 1459 1454 1453 1458 1463 1458 1449 1451 1454 1454 1458 1457 1458 1463 1462 1463 1461 1454 1454 1460 1465 1470 1469 1467 1468 1467 1464 1462 1461 1460 1461 1462 1462 1463 1463 1465
1476 1475 1474 1473 1472 1471 1470 1469 1469 1468 1469 1469 1469 1470 1469 1471 1470 1469 1479 1476 1449 1434 1435 1433 1434 1435 1433 1433 1433 1430 1428 1428 1428 1428 1430 1437 1439 1440 1444 1444 1445 1448 1447 1450 1453 1449 1447 1448 1448 1452 1456 1455 1450 1446 1449 1455 1455 1448 1446 1451 1451 1452 1456 1455 1458 1461 1462 1469 1466 1453 1451 1459 1467 1473 1472 1472 1471 1468 1464 1463 1462 1461 1461 1462 1462 1462 1463 1465
1475 1474 1472 1471 1470 1470 1469 1469 1468 1467 1468 1468 1469 1469 1468 1470 1469 1475 1484 1471 1446 1438 1436 1434 1437 1437 1436 1437 1435 1432 1430 1428 1427 1428 1431 1435 1437 1439 1441 1442 1444 1447 1449 1449 1449 1446 1445 1445 1446 1448 1449 1447 1444 1443 1445 1448 1446 1444 1448 1452 1452 1454 1454 1455 1460 1460 1465 1472 1462 1451 1451 1455 1465 1472 1471 1470 1468 1464 1463 1463 1462 1462 1461 1462 1462 1463 1464 1465
1473 1472 1471 1469 1469 1468 1468 1468 1467 1467 1468 1467 1468 1468 1468 1470 1474 1481 1479 1458 1445 1443 1438 1438 1439 1437 1438 1439 1437 1433 1431 1430 1428 1429 1433 1435 1438 1440 1441 1444 1446 1449 1453 1451 1449 1447 1445 1446 1446 1443 1442 1442 1442 1442 1442 1442 1443 1446 1449 1451 1454 1457 1456 1459 1463 1463 1472 1473 1458 1453 1454 1451 1462 1469 1466 1464 1461 1460 1461 1459 1458 1460 1461 1462 1462 1463 1464 1466
1471 1471 1470 1468 1468 1467 1467 1466 1466 1466 1467 1467 1468 1467 1467 1473 1478 1477 1466 1451 1449 1449 1445 1444 1442 1439 1438 1436 1434 1432 1430 1431 1429 1428 1432 1435 1438 1440 1440 1443 1446 1452 1458 1455 1451 1449 1446 1445 1443 1440 1438 1438 1441 1444 1443 1442 1444 1447 1450 1453 1459 1465 1466 1468 1470 1471 1473 1466 1457 1459 1456 1453 1463 1468 1464 1462 1459 1458 1459 1458 1458 1459 1459 1461 1462 1464 1466 1468
1470 1469 1468 1468 1467 1466 1466 1465 1465 1466 1466 1467 1468 1466 1469 1476 1476 1469 1462 1457 1454 1450 1449 1448 1444 1442 1439 1435 1432 1429 1428 1431 1429 1428 1430 1433 1438 1440 1438 1440 1441 1446 1453 1455 1454 1452 1449 1444 1440 1440 1437 1434 1437 1443 1445 1445 1445 1446 1448 1452 1460 1470 1477 1479 1479 1479 1473 1461 1458 1460 1456 1459 1467 1465 1462 1461 1457 1456 1458 1460 1462 1462 1461 1460 1460 1463 1467 1470
1469 1468 1467 1467 1467 1466 1465 1465 1465 1465 1466 1466 1467 1468 1472 1476 1471 1465 1464 1462 1455 1451 1451 1450 1446 1441 1438 1436 1432 1428 1430 1432 1429 1429 1432 1434 1439 1441 1440 1440 1440 1440 1445 1452 1455 1453 1455 1450 1440 1437 1436 1432 1432 1434 1435 1437 1440 1442 1442 1445 1454 1461 1469 1474 1472 1470 1467 1462 1461 1460 1461 1468 1471 1466 1462 1460 1457 1456 1457 1459 1462 1464 1465 1464 1463 1464 1466 1470
1467 1467 1466 1466 1466 1466 1465 1465 1464 1465 1466 1466 1467 1471 1473 1471 1468 1467 1465 1460 1457 1455 1453 1451 1448 1443 1440 1436 1432 1429 1431 1432 1431 1431 1433 1436 1439 1439 1439 1437 1438 1439 1443 1451 1454 1451 1454 1450 1436 1432 1433 1430 1429 1428 1427 1431 1438 1443 1442 1444 1450 1449 1451 1464 1468 1465 1464 1463 1465 1468 1471 1474 1471 1466 1463 1461 1458 1458 1459 1461 1463 1464 1466 1467 1467 1466 1466 1468
1467 1466 1466 1466 1466 1466 1466 1465 1465 1465 1466 1466 1469 1472 1471 1467 1466 1466 1463 1460 1460 1459 1456 1453 1449 1447 1444 1439 1435 1433 1431 1432 1434 1433 1434 1436 1436 1435 1435 1433 1434 1436 1438 1445 1450 1450 1452 1447 1434 1432 1431 1428 1428 1427 1426 1430 1436 1443 1444 1443 1445 1443 1444 1458 1470 1472 1469 1466 1471 1478 1478 1474 1471 1468 1465 1464 1463 1463 1464 1466 1467 1468 1469 1469 1468 1466 1466 1468
1466 1465 1465 1466 1466 1466 1466 1466 1466 1466 1466 1467 1469 1470 1470 1467 1465 1465 1463 1462 1462 1460 1460 1460 1454 1449 1449 1446 1442 1438 1434 1433 1436 1436 1437 1437 1436 1434 1433 1433 1432 1432 1432 1436 1442 1445 1447 1445 1435 1433 1432 1428 1427 1427 1426 1427 1430 1438 1442 1439 1440 1444 1446 1452 1463 1473 1474 1470 1475 1481 1478 1475 1476 1473 1469 1468 1468 1469 1470 1470 1471 1472 1472 1474 1474 1472 1470 1471
1466 1465 1465 1466 1466 1466 1467 1467 1467 1467 1467 1468 1470 1470 1470 1467 1463 1463 1462 1462 1462 1461 1462 1464 1457 1449 1451 1452 1447 1440 1438 1438 1437 1437 1439 1439 1436 1432 1432 1432 1431 1431 1430 1431 1437 1440 1444 1446 1438 1433 1433 1430 1426 1428 1430 1429 1428 1431 1434 1434 1437 1445 1450 1453 1460 1468 1472 1474 1479 1483 1481 1479 1478 1475 1473 1473 1473 1473 1474 1473 1472 1473 1474 1476 1479 1478 1476 1475
1465 1466 1466 1466 1467 1467 1467 1467 1467 1467 1467 1469 1471 1470 1468 1466 1463 1462 1462 1462 1462 1462 1462 1461 1457 1452 1451 1453 1448 1442 1440 1440 1437 1436 1438 1439 1437 1432 1431 1432 1430 1431 1430 1430 1436 1439 1442 1448 1443 1434 1433 1431 1429 1432 1436 1435 1431 1430 1432 1435 1437 1442 1447 1451 1456 1459 1464 1472 1480 1483 1483 1481 1478 1478 1478 1476 1476 1475 1474 1473 1472 1472 1473 1474 1477 1480 1479 1478
1465 1465 1466 1467 1467 1467 1467 1467 1467 1468 1468 1470 1471 1469 1466 1465 1463 1461 1462 1461 1461 1460 1459 1457 1456 1455 1452 1449 1447 1444 1440 1437 1436 1436 1436 1436 1436 1432 1430 1430 1429 1429 1430 1431 1435 1438 1441 1447 1447 1438 1433 1435 1436 1437 1438 1437 1434 1433 1437 1440 1442 1443 1446 1449 1454 1457 1457 1464 1475 1481 1483 1481 1478 1478 1477 1476 1476 1476 1475 1474 1474 1473 1472 1472 1474 1478 1481 1481
1465 1466 1467 1467 1467 1467 1467 1468 1468 1469 1469 1470 1470 1468 1466 1464 1462 1460 1460 1460 1459 1458 1456 1455 1455 1454 1452 1449 1446 1442 1438 1436 1436 1436 1436 1436 1436 1433 1430 1429 1428 1428 1429 1432 1435 1438 1441 1445 1447 1444 1440 1442 1442 1440 1438 1438 1436 1436 1439 1443 1447 1447 1446 1449 1457 1460 1457 1461 1469 1473 1477 1481 1478 1476 1475 1476 1476 1475 1475 1476 1477 1478 1476 1474 1475 1476 1480 1482
1465 1466 1467 1467 1468 1468 1468 1468 1469 1469 1469 1469 1468 1467 1465 1463 1461 1460 1459 1458 1457 1455 1454 1453 1451 1450 1449 1447 1443 1439 1437 1437 1436 1435 1435 1435 1435 1433 1429 1427 1427 1427 1429 1434 1437 1437 1439 1442 1445 1447 1447 1447 1445 1441 1440 1440 1438 1437 1439 1445 1449 1448 1445 1446 1453 1457 1457 1464 1469 1468 1472 1479 1478 1476 1475 1476 1476 1476 1476 1477 1479 1481 1479 1476 1477 1477 1479 1480
1465 1466 1467 1468 1468 1468 1468 1469 1470 1470 1469 1468 1466 1465 1464 1462 1461 1460 1458 1457 1455 1453 1452 1451 1448 1447 1444 1441 1440 1438 1436 1438 1437 1435 1434 1435 1434 1432 1430 1427 1428 1429 1430 1436 1439 1438 1440 1445 1446 1448 1449 1448 1444 1441 1440 1440 1439 1439 1442 1445 1446 1447 1449 1448 1449 1451 1453 1462 1467 1466 1474 1481 1477 1476 1476 1476 1477 1476 1476 1477 1477 1479 1479 1478 1478 1477 1478 1479
1466 1467 1468 1469 1468 1468 1469 1470 1470 1470 1469 1467 1466 1464 1462 1461 1460 1459 1458 1456 1454 1452 1452 1450 1447 1446 1444 1440 1439 1438 1437 1438 1438 1435 1435 1436 1434 1432 1430 1429 1430 1431 1432 1437 1438 1437 1444 1450 1449 1452 1458 1457 1454 1450 1444 1442 1443 1445 1448 1448 1444 1445 1449 1450 1452 1451 1453 1464 1464 1460 1473 1483 1478 1476 1477 1476 1477 1477 1476 1476 1475 1476 1479 1479 1478 1478 1479 1479
1466 1467 1468 1468 1468 1468 1468 1469 1469 1470 1469 1469 1468 1465 1463 1461 1459 1458 1458 1456 1454 1452 1452 1450 1447 1446 1444 1442 1440 1439 1436 1436 1437 1438 1437 1437 1435 1432 1432 1432 1431 1432 1434 1435 1434 1435 1445 1451 1448 1452 1462 1465 1464 1461 1456 1454 1454 1452 1452 1451 1447 1446 1445 1447 1451 1449 1453 1466 1467 1461 1472 1482 1478 1477 1478 1477 1477 1477 1477 1477 1477 1478 1480 1481 1480 1479 1479 1480
1466 1468 1469 1469 1468 1468 1468 1468 1469 1469 1468 1469 1468 1466 1465 1463 1459 1458 1458 1457 1455 1453 1452 1450 1447 1446 1445 1444 1442 1441 1440 1437 1437 1439 1441 1441 1438 1435 1434 1434 1433 1433 1434 1434 1434 1437 1445 1452 1450 1449 1454 1460 1462 1463 1462 1461 1459 1455 1454 1453 1452 1450 1446 1447 1451 1452 1456 1466 1470 1470 1474 1477 1478 1479 1479 1478 1479 1479 1480 1480 1480 1480 1481 1481 1481 1479 1480 1480
1466 1468 1469 1469 1468 1468 1468 1468 1468 1468 1468 1468 1467 1466 1466 1465 1461 1459 1458 1457 1455 1453 1452 1451 1449 1449 1449 1448 1445 1444 1444 1442 1440 1441 1443 1443 1440 1437 1436 1436 1435 1434 1434 1434 1435 1437 1444 1454 1456 1455 1458 1462 1464 1464 1463 1461 1461 1461 1461 1459 1457 1453 1448 1447 1452 1458 1461 1461 1466 1473 1474 1474 1478 1479 1479 1480 1481 1481 1482 1483 1483 1483 1483 1483 1482 1481 1481 1481
1467 1468 1469 1469 1469 1469 1470 1469 1468 1468 1468 1467 1467 1466 1466 1465 1463 1462 1460 1457 1456 1454 1453 1453 1453 1452 1453 1452 1449 1448 1447 1445 1444 1445 1445 1443 1442 1441 1439 1437 1437 1437 1436 1436 1437 1439 1447 1457 1460 1460 1464 1466 1466 1464 1462 1462 1465 1468 1468 1466 1464 1459 1451 1450 1458 1465 1463 1459 1464 1472 1474 1475 1479 1480 1481 1483 1483 1484 1485 1486 1486 1486 1485 1485 1484 1483 1483 1483
1467 1468 1468 1468 1468 1470 1470 1469 1468 1468 1468 1467 1466 1466 1466 1466 1465 1464 1462 1459 1458 1457 1456 1456 1456 1454 1453 1452 1450 1451 1451 1449 1448 1449 1447 1446 1446 1446 1443 1441 1441 1440 1438 1439 1442 1443 1449 1459 1461 1460 1463 1466 1466 1464 1463 1464 1467 1469 1471 1472 1470 1466 1460 1457 1463 1467 1464 1463 1468 1472 1475 1479 1482 1482 1484 1485 1485 1486 1487 1488 1489 1488 1488 1488 1486 1485 1485 1485
1467 1467 1468 1468 1468 1469 1469 1469 1469 1468 1467 1467 1467 1466 1466 1467 1466 1464 1462 1460 1460 1459 1457 1458 1457 1455 1454 1453 1451 1452 1453 1451 1451 1451 1449 1448 1448 1448 1448 1446 1444 1443 1441 1442 1445 1445 1448 1458 1461 1458 1463 1469 1468 1465 1465 1467 1469 1470 1471 1472 1472 1471 1468 1464 1465 1466 1465 1469 1473 1475 1479 1484 1485 1485 1486 1487 1487 1487 1488 1491 1492 1491 1490 1490 1488 1488 1488 1488
1467 1467 1467 1467 1469 1471 1470 1469 1470 1470 1469 1469 1469 1466 1466 1467 1467 1465 1462 1460 1460 1460 1458 1458 1457 1455 1454 1453 1452 1452 1452 1451 1450 1450 1449 1449 1450 1451 1451 1449 1446 1446 1445 1443 1446 1447 1449 1458 1461 1457 1463 1472 1471 1469 1469 1469 1470 1469 1470 1475 1478 1476 1474 1471 1469 1467 1466 1469 1475 1478 1481 1486 1488 1488 1488 1489 1490 1490 1491 1494 1495 1495 1495 1493 1490 1490 1490 1490
1467 1467 1467 1468 1470 1473 1473 1472 1472 1471 1471 1471 1470 1467 1467 1467 1466 1465 1463 1460 1458 1458 1458 1458 1457 1456 1454 1453 1452 1450 1449 1448 1447 1446 1447 1450 1451 1451 1450 1449 1446 1447 1447 1446 1448 1450 1451 1455 1457 1457 1465 1474 1475 1473 1472 1470 1470 1472 1475 1482 1485 1481 1477 1475 1474 1471 1469 1468 1472 1477 1482 1486 1488 1488 1489 1492 1493 1493 1495 1496 1497 1499 1499 1497 1495 1494 1493 1493